FLOCK 3R-7 (43742 NORAD) Tracking and Keplerian Element Data

This shows tracking and keplerian element data for the satellite.

Feedback or suggestion? Click here.




ElementValue
Catalog43742
NameFLOCK 3R-7
Epoch Orbit168
Epoch Day344.25637943
Epoch Year2018
RAAN49.2596
Inclination97.484
Eccentricity0.0017027
Argument of Perigee285.9938
Mean Anonmoly146.5815
Mean Motion15.26064523
Decay Rate2.361E-05
L11 43742U 18096Z 18344.25637943 .00002361 00000-0 94224-4 0 9990
L22 43742 97.4840 49.2596 0017027 285.9938 146.5815 15.26064523 1689

Live tracking and technical data element details for FLOCK 3R-7 (NORAD 43742). FLOCK 3R-7 can be tracked NOW for your location showing map with azimuth and elevation plus other details from your city location.

Track the satellite on the map from your city or location and see movement details for azimuth, elevation, latitude, longitude, range, height, and movement on the map or in text.







IsCatalogInMostPopularTable: catalog: 43742, numindb: 5
Update: records affected: 1



GetName: 43742 FLOCK 3R-7

Hit Count: updated at: Tue, 11 Dec 2018 01:53:57 GMT